Location: Newark
(44.3100°N, 0.7769°W)
Time: 16:46:17
(UTC+00:00)

Envisat - Pass Details

Date: 21 November 2019
Orbit: 764 x 766 km, 98.1° (Epoch: 11 December)

Event Time Altitude Azimuth Distance (km) Brightness Sun altitude
Rises 17:40:55 0° 156° (SSE) 3,219 6.2 -12.4°
Reaches altitude 10° 17:43:13 10° 154° (SSE) 2,297 5.4 -12.8°
Maximum altitude 17:48:13 65° 73° (ENE) 841 2.9 -13.7°
Drops below altitude 10° 17:53:16 10° 352° (N) 2,313 5.4 -14.5°
Sets 17:55:36 0° 350° (N) 3,243 6.2 -14.9°
